GFSMA_2pvu_pres_276.txt.gz
Presure
107 109 113 114 119 119 127 111 121 118 121 123 123 126 100 109 108 112 112 107 125 111 118 76 127 102 138 113 119 103 134 96 109 104 107 104 112 120 95 110 132 113 122
112 115 110 110 120 118 130 121 127 121 114 120 107 122 98 112 103 97 121 115 116 107 124 127 120 102 114 127 128 116 119 138 103 99 108 111 124 113 117 111 122 128 96
122 115 116 116 107 108 104 119 125 124 110 114 113 110 131 112 112 115 115 106 113 106 113 122 118 92 116 124 103 137 111 135 102 108 110 109 100 124 107 117 129 133 150
135 128 156 114 115 119 122 114 108 113 119 113 125 121 128 118 90 113 102 133 111 112 104 120 110 119 126 130 127 115 111 104 98 117 104 111 120 102 118 102 123 129 131
127 142 155 141 131 122 109 115 119 121 121 122 118 121 123 120 118 127 132 129 116 120 144 118 129 125 127 124 113 126 115 112 117 113 110 103 120 122 115 121 130 124 116
126 134 129 134 136 118 122 115 115 115 115 116 121 122 108 118 124 120 130 133 133 101 111 130 105 130 132 112 112 129 125 136 118 111 101 122 112 106 135 114 123 150 139
118 124 131 133 133 125 116 106 109 115 123 127 123 110 123 126 132 135 133 137 113 104 125 98 123 115 116 127 121 120 110 128 125 113 103 113 127 118 104 125 120 118 131
120 113 119 120 123 128 127 126 126 126 122 117 115 130 126 114 112 95 127 132 124 107 118 99 135 118 114 139 113 135 122 130 133 123 139 133 111 126 107 124 117 137 117
124 125 117 117 116 116 120 123 124 124 130 121 120 123 117 113 117 127 121 126 132 129 142 115 136 116 133 125 131 114 128 139 105 112 117 129 116 110 117 121 109 154 129
136 114 129 121 133 100 102 116 112 115 117 119 115 110 123 131 131 103 127 142 135 103 137 110 141 130 122 134 140 109 120 139 122 132 136 151 117 134 111 128 133 129 138
133 124 123 112 126 124 122 130 119 115 123 131 122 125 138 130 133 134 130 139 128 137 149 141 144 118 117 124 108 112 109 144 121 185 121 94 121 123 119 123 126 133 131
126 125 128 125 127 123 114 111 129 127 126 138 134 145 115 142 144 139 143 123 146 146 105 127 127 138 139 115 120 124 117 128 118 127 99 141 131 100 128 115 149 135 132
122 117 123 127 112 105 129 134 126 119 125 124 124 135 129 126 133 135 133 131 145 133 125 138 152 166 117 155 157 134 128 136 110 113 117 135 118 125 134 172 132 183 134
140 117 121 105 126 134 133 138 141 125 122 113 118 143 137 124 132 139 131 130 131 133 131 133 149 151 156 124 142 119 111 143 140 143 190 124 113 134 124 139 201 124 126
114 139 136 126 130 137 144 149 178 154 146 142 137 127 138 130 130 150 148 135 124 132 116 121 158 144 102 134 140 174 135 148 114 156 107 155 132 126 134 118 131 121 134
114 132 126 123 136 176 163 167 140 142 133 134 139 148 153 130 133 126 136 134 143 137 139 135 127 113 120 189 105 141 135 95 104 130 159 164 102 124 147 113 123 94 107
136 114 121 128 128 121 190 203 151 133 126 132 122 157 147 139 147 134 142 105 142 128 149 131 103 160 126 171 124 91 114 123 115 147 151 132 119 105 137 109 96 165 130
170 284 288 129 251 93 122 96 131 108 127 167 97 103 141 131 110 167 119 193 112 173 117 152 113 111 131 121 118 115 153 110 112 141 180 99 169 185 121 107 185 156 134
98 119 255 299 116 109 123 145 141 174 144 138 116 123 119 134 90 113 103 96 113 116 124 105 116 131 185 190 155 130 110 120 126 165 162 168 149 142 183 135 169 170 171
169 247 189 172 297 252 182 224 167 185 182 144 137 116 129 121 127 122 176 149 117 139 100 111 106 138 142 118 145 171 171 101 159 185 201 161 183 155 129 126 155 185 164
203 246 248 260 283 227 189 230 116 215 211 160 211 98 154 207 171 208 143 190 227 104 106 209 205 188 196 141 169 179 180 178 176 205 184 195 192 187 174 178 185 173 161
237 240 246 245 253 97 280 282 97 252 205 145 144 213 169 210 96 101 111 217 201 210 129 104 207 187 180 176 193 174 182 171 193 156 167 202 185 178 167 199 191 174 178
306 261 238 239 244 250 255 268 278 172 283 226 213 214 214 214 212 210 221 230 200 194 206 195 211 194 189 190 202 189 171 185 170 169 170 173 177 189 170 171 191 173 186
282 289 297 304 246 238 242 252 260 267 277 287 294 267 253 229 224 226 212 219 202 201 212 195 186 188 180 180 197 186 181 191 174 199 171 192 151 144 199 175 182 186 196
264 275 280 281 288 294 294 241 241 249 257 268 278 282 288 300 303 164 296 250 224 221 204 195 192 191 197 188 198 202 198 187 183 180 192 170 198 203 181 182 175 189 175
246 256 261 268 276 289 294 290 304 311 332 263 263 271 266 273 280 290 302 315 304 306 258 260 204 201 200 195 208 190 204 191 183 183 180 183 184 183 188 179 191 181 178

GFSMA_2pvu_pres_279.txt.gz
Presure
122 106 118 105 110 109 109 111 119 118 116 110 117 110 123 123 124 120 116 103 101 109 99 123 105 114 119 88 131 115 133 117 134 108 127 105 98 114 102 97 100 104 115
110 98 99 104 104 108 111 111 115 120 127 116 121 125 115 120 109 126 125 102 125 115 115 132 109 112 124 116 125 101 118 107 115 137 133 121 117 114 102 100 103 135 109
128 127 110 103 109 116 118 111 115 120 120 118 122 125 112 115 114 97 121 127 110 116 118 110 131 119 116 104 121 117 128 125 137 115 132 98 109 136 119 101 109 103 112
122 126 119 124 115 114 114 114 112 110 109 113 116 118 123 121 114 120 123 116 116 98 126 121 107 106 140 141 128 125 130 125 124 122 124 133 111 129 113 100 110 144 107
129 134 131 129 118 114 124 119 112 116 120 123 113 108 107 104 117 118 125 129 121 119 129 131 122 126 136 131 117 115 127 114 125 132 117 126 135 119 99 111 145 118 126
113 125 128 135 137 129 134 130 132 138 116 113 117 123 122 124 122 123 132 122 117 120 105 128 127 113 134 108 140 105 121 109 126 118 119 114 120 119 119 152 126 126 102
117 112 119 122 130 127 137 130 136 133 139 127 118 118 110 112 131 130 119 126 131 134 131 135 130 110 121 129 141 130 121 109 123 110 103 122 139 124 107 104 160 111 126
131 121 126 124 119 125 127 136 135 137 131 133 118 111 115 119 123 127 100 121 113 111 107 125 126 107 108 130 126 130 119 136 106 132 111 110 118 145 121 129 118 135 126
131 127 139 125 129 118 120 125 126 127 136 138 137 134 133 131 136 121 135 146 134 122 124 125 127 126 138 138 139 146 122 99 132 151 110 106 114 151 129 116 143 136 122
128 138 135 120 122 123 125 122 116 128 123 126 129 128 132 138 132 134 128 119 119 128 129 127 124 133 133 136 95 153 120 126 135 112 117 121 116 120 105 107 166 99 128
136 126 113 128 126 126 123 122 128 125 119 132 129 119 104 119 123 122 137 117 141 133 139 136 147 144 147 142 151 132 122 130 150 133 122 138 133 125 105 142 122 178 112
173 130 119 126 131 117 125 136 127 130 135 132 129 104 130 129 133 122 140 145 135 134 138 154 136 153 136 150 137 130 132 136 187 132 177 133 114 150 133 142 149 121 194
135 132 129 133 123 160 132 117 122 125 132 124 131 131 129 129 131 148 134 135 134 132 130 146 151 129 134 134 132 133 132 165 142 139 103 135 136 184 131 144 131 121 163
157 151 126 134 135 128 131 185 120 131 129 126 125 128 140 143 143 133 138 154 135 129 184 145 123 137 131 134 148 142 115 136 183 114 146 156 149 131 191 119 113 107 180
300 290 166 111 125 134 136 100 125 132 126 132 125 140 136 131 149 144 139 118 143 144 137 133 138 127 146 135 128 138 132 136 92 122 151 127 209 125 114 112 121 110 118
287 286 257 218 148 97 124 125 127 135 128 138 129 128 141 137 138 145 144 140 147 136 138 142 143 151 139 98 144 133 122 124 133 170 146 122 108 158 130 130 170 159 117
259 269 275 274 240 131 118 259 131 156 134 129 127 146 123 147 174 145 182 128 131 117 124 128 125 110 107 94 148 142 117 123 154 113 115 123 149 137 140 111 117 134 215
356 81 216 169 127 134 141 272 98 122 126 94 142 144 143 126 109 141 156 155 95 140 177 165 149 147 131 141 106 117 128 167 122 122 108 124 179 111 100 187 101 105 200
345 357 283 243 250 256 247 263 129 153 141 163 108 131 142 125 102 100 95 139 123 159 146 132 142 114 125 112 114 101 88 123 116 110 130 227 183 180 139 175 192 164 194
317 325 339 277 243 241 194 123 246 185 215 278 275 197 101 147 183 185 167 92 99 155 101 116 98 103 138 180 111 186 111 199 182 177 179 189 183 172 179 208 180 198 148
286 297 305 318 309 237 235 177 246 236 259 266 225 104 126 109 249 191 235 211 218 211 153 237 223 222 189 154 131 189 201 155 171 204 212 176 181 177 150 176 171 186 175
268 279 279 298 295 311 231 232 81 241 248 256 264 268 279 107 97 250 242 239 237 229 224 150 135 229 215 117 110 164 222 201 164 180 204 208 187 175 181 191 192 188 170
255 254 268 267 276 282 293 249 232 236 240 246 253 263 268 278 301 274 277 249 233 226 220 233 178 152 145 214 243 218 199 200 215 201 187 204 214 195 182 187 187 184 205
258 257 256 257 265 271 272 273 284 265 235 239 247 254 265 275 279 289 311 304 270 241 236 219 179 240 226 221 181 212 213 260 214 199 181 194 186 190 189 191 193 180 177
251 254 251 262 265 271 270 272 277 284 289 300 264 258 260 253 263 272 281 294 310 318 318 268 228 236 232 220 224 227 226 215 208 198 198 197 186 183 191 186 185 183 193
242 241 240 242 280 271 304 283 285 285 283 291 304 296 303 322 330 319 279 279 281 270 295 296 307 315 248 234 225 223 247 230 230 211 213 199 194 192 201 187 192 183 186

GFSMA_2pvu_pres_282.txt.gz
Presure
110 135 114 116 112 115 106 107 105 109 111 111 117 118 115 106 122 109 118 123 123 128 125 102 115 114 109 101 110 121 122 100 119 102 121 109 114 130 129 109 108 123 115
127 115 121 113 126 117 108 110 112 111 112 109 115 113 117 123 115 127 117 114 110 126 127 118 135 111 105 97 112 122 110 107 123 111 129 123 124 113 132 122 111 104 109
115 117 121 130 105 103 105 107 104 108 111 112 116 119 115 117 120 124 129 118 117 106 114 129 129 132 124 105 106 118 123 144 127 121 126 125 120 104 113 114 128 120 112
122 122 120 119 127 130 123 106 109 112 104 117 108 115 118 120 117 122 126 122 119 119 122 124 121 117 120 128 121 115 129 131 131 120 110 127 121 120 114 110 104 100 92
116 122 124 125 118 121 122 130 127 121 118 116 114 113 108 114 118 121 120 113 119 117 121 123 126 131 112 124 122 127 123 101 126 139 130 107 130 122 101 112 120 117 148
119 122 122 125 127 130 134 135 125 119 119 122 125 123 119 118 122 108 111 116 119 126 125 130 130 137 113 118 126 115 98 114 118 135 132 149 106 115 123 118 122 113 161
121 138 125 124 120 124 127 131 136 139 140 128 138 138 135 139 121 121 118 119 126 117 122 127 109 133 129 133 133 130 128 103 128 138 142 105 131 112 145 107 103 115 135
124 125 129 132 123 121 117 124 126 129 133 136 135 133 135 138 140 142 135 121 114 119 124 128 128 115 98 106 125 122 125 126 135 138 141 100 130 101 158 103 117 124 82
126 122 124 128 131 131 121 121 118 123 123 127 130 132 138 132 137 136 138 141 121 122 129 134 134 138 125 118 121 134 130 129 127 115 145 125 118 112 144 114 147 136 137
120 130 132 128 127 125 132 128 130 130 125 131 124 126 130 135 135 141 140 145 146 144 132 142 134 111 124 124 119 123 133 143 138 135 145 126 106 127 138 143 133 125 130
214 140 124 128 131 139 134 126 125 128 135 131 138 124 124 127 120 140 121 126 128 130 118 131 129 130 132 138 132 133 155 137 110 137 129 142 126 119 153 138 135 111 144
154 161 134 119 131 128 123 131 131 129 123 116 125 132 131 130 128 123 128 137 127 129 131 137 141 122 128 151 133 133 127 158 122 130 122 124 133 125 128 133 143 124 127
202 157 146 103 149 118 132 133 127 127 130 126 121 118 120 121 136 139 124 135 134 133 132 139 135 138 134 131 127 122 139 154 132 129 154 133 137 112 127 129 133 121 160
253 147 225 222 117 173 136 131 128 112 133 135 125 128 122 124 120 139 141 141 123 127 145 141 144 153 150 128 145 132 143 125 108 138 142 126 126 131 146 102 113 143 142
269 306 319 311 263 288 195 89 116 139 122 134 145 128 134 134 130 131 136 139 140 129 124 141 136 141 142 141 131 135 168 149 138 145 131 125 132 119 128 150 145 136 116
275 278 286 288 290 290 262 304 179 125 121 117 131 141 139 137 137 129 123 134 124 138 132 130 140 139 151 158 135 118 128 150 124 127 129 134 116 129 146 194 150 121 180
349 359 344 362 355 269 270 275 285 247 287 272 265 222 133 157 132 127 130 134 122 140 141 135 146 139 122 126 118 133 127 128 161 152 205 133 128 125 114 163 166 118 125
311 312 318 336 353 346 366 269 265 265 261 269 280 293 293 275 263 129 131 142 135 141 137 105 126 122 124 139 152 134 127 143 129 172 149 130 116 135 124 134 149 99 111
279 282 289 305 294 307 320 342 291 263 261 254 84 272 143 277 142 137 119 278 145 190 136 110 117 117 125 111 138 132 129 122 137 117 119 93 126 170 130 131 144 150 178
255 266 271 268 279 277 289 303 314 296 276 188 257 236 179 262 266 202 116 208 130 131 172 109 103 172 158 144 167 188 177 208 175 197 124 217 140 121 196 135 202 213 147
259 258 258 261 267 268 269 272 282 295 302 289 292 263 256 255 217 175 268 178 100 137 297 122 272 148 169 202 224 157 209 211 184 206 128 195 171 180 122 201 188 198 191
233 233 259 254 260 257 261 269 269 285 281 294 290 277 255 261 257 269 264 119 125 276 102 275 117 116 276 262 110 173 230 227 102 105 211 107 167 209 214 210 210 198 186
102 238 142 234 250 262 264 264 268 272 278 285 293 299 306 190 271 253 262 266 272 276 257 275 111 209 318 286 273 256 244 243 219 217 134 222 209 212 204 218 209 228 195
232 235 240 249 248 241 243 252 256 267 287 293 284 288 293 299 308 317 323 304 275 269 263 267 174 272 281 286 323 303 261 255 247 235 235 227 223 224 222 217 209 226 207
247 248 249 252 260 269 284 286 283 306 313 269 350 362 295 348 348 309 296 306 307 317 312 319 268 276 282 263 274 279 314 324 260 255 238 239 233 228 224 202 220 216 222
242 247 254 255 252 264 274 279 292 305 330 366 348 340 334 416 427 423 424 427 431 450 320 305 307 315 324 331 337 263 274 265 304 274 253 251 241 227 228 230 214 211 208

GFSMA_2pvu_pres_285.txt.gz
Presure
128 108 118 131 129 117 118 117 117 110 108 111 113 111 108 113 122 123 110 109 122 111 117 124 124 108 97 121 131 107 112 116 103 103 108 116 104 111 115 110 116 116 104
117 124 106 109 116 132 126 112 110 117 119 107 109 110 114 114 117 117 120 127 115 123 120 115 110 117 130 128 115 118 112 107 103 120 118 120 105 114 120 122 118 111 103
122 116 121 122 104 108 114 122 126 123 109 114 108 110 109 107 112 119 123 120 119 125 123 129 111 114 114 124 94 122 119 120 112 110 122 133 128 102 132 104 119 114 110
120 119 123 126 122 135 128 114 108 104 104 99 107 109 113 114 115 111 116 117 122 119 120 122 124 122 117 126 124 112 123 121 122 124 108 104 115 111 137 112 102 105 124
131 134 132 124 121 129 128 118 123 127 128 117 122 111 111 117 119 121 115 111 111 115 119 117 113 119 117 125 123 131 120 106 119 125 98 116 116 116 134 135 107 127 132
149 118 131 129 118 118 123 127 131 117 118 124 125 131 131 129 121 126 147 124 123 121 124 119 116 117 124 122 124 114 117 129 134 126 114 111 114 115 139 97 124 139 103
119 124 140 127 118 119 120 123 124 127 132 136 127 130 125 126 125 123 139 128 130 131 124 125 119 122 127 116 125 121 121 118 104 111 123 125 119 127 130 127 121 126 115
131 127 125 155 123 127 134 134 137 124 127 129 127 134 136 136 134 134 134 129 137 141 145 146 130 125 124 113 125 125 109 130 130 115 118 115 129 126 136 121 143 122 114
106 113 118 118 126 112 129 129 145 137 137 127 124 122 128 127 130 130 134 132 132 133 134 137 136 141 143 130 128 129 141 146 113 127 116 123 128 138 130 132 123 131 126
121 124 126 138 113 130 122 131 122 124 127 132 134 132 120 123 124 127 125 127 129 129 135 138 133 134 140 143 139 135 134 112 116 123 110 132 144 143 141 123 131 127 127
125 115 100 108 138 118 120 127 119 133 131 130 128 139 146 148 142 138 135 128 124 139 127 127 119 118 120 131 120 124 122 121 136 123 115 113 133 138 152 114 127 126 129
152 127 129 170 220 127 144 118 106 112 128 131 123 129 137 136 123 123 133 134 132 141 127 125 134 117 124 130 116 136 128 119 140 132 133 134 122 131 147 127 127 114 144
231 129 162 126 182 195 170 125 178 128 120 113 115 121 115 127 132 134 131 176 139 133 133 134 134 132 136 139 134 138 135 142 123 122 130 149 140 113 137 124 112 129 131
122 230 83 86 222 148 150 235 227 234 136 133 145 136 130 126 124 129 130 132 135 135 124 119 137 146 140 123 133 141 139 124 148 127 124 120 138 126 142 141 144 131 131
297 300 302 121 149 276 187 288 311 237 257 148 175 138 141 114 120 121 117 125 116 133 138 132 148 143 140 140 117 135 133 134 137 134 127 136 159 130 128 138 139 164 122
254 158 261 264 165 292 309 300 103 93 222 198 300 279 163 226 247 138 132 132 132 121 132 132 134 140 151 162 142 132 134 132 143 135 132 127 141 134 129 122 121 135 142
271 265 283 289 304 321 325 332 340 346 290 340 278 275 283 292 299 150 270 143 139 141 142 138 144 201 144 143 151 138 136 144 126 144 130 151 146 140 149 153 129 124 143
280 280 282 282 250 294 297 296 310 313 311 328 341 349 319 267 273 279 282 296 127 130 125 138 129 127 145 144 193 148 153 138 142 114 138 124 109 160 150 112 132 114 134
264 272 272 269 268 269 275 282 282 284 292 292 127 304 319 331 324 269 202 274 140 293 265 307 178 164 277 102 134 144 125 142 123 137 142 117 140 120 116 183 121 133 187
241 245 241 241 244 242 252 255 263 268 274 278 280 262 238 300 308 321 240 266 270 277 281 284 290 296 303 310 323 264 238 119 133 124 120 208 158 199 143 160 140 118 147
243 245 244 248 243 249 253 256 256 255 258 262 268 275 279 285 294 303 312 321 298 107 267 274 279 277 104 284 291 298 272 313 273 151 120 246 95 193 184 137 196 120 115
239 240 241 240 240 242 254 257 250 250 248 249 254 255 264 304 282 285 293 303 311 320 329 337 339 297 304 283 283 109 124 282 118 102 137 109 148 264 223 235 227 210 213
237 238 239 248 252 256 259 261 266 269 275 282 285 261 314 295 368 304 346 287 291 297 306 310 316 327 338 349 352 274 270 271 244 226 280 127 129 310 277 267 235 224 222
238 241 239 243 244 248 250 244 254 267 277 282 299 311 325 350 380 370 370 352 432 247 390 339 298 300 312 313 323 330 339 322 262 194 235 192 117 274 298 301 265 233 227
234 230 230 232 256 250 180 265 267 270 276 295 136 324 334 382 358 366 420 409 398 395 399 403 412 417 424 363 378 333 304 309 312 281 342 273 257 259 265 282 299 287 241
232 242 249 241 259 249 257 259 264 271 277 279 302 324 377 363 363 355 402 387 379 373 370 375 378 386 403 411 426 447 466 476 483 485 301 311 326 345 264 257 258 284 287